Regional Weather Roundup
Issued by NWS

Home | Current Version | Previous Version | Graphics & Text | Print | Product List | Glossary Off
Versions: 1 2 3 4 5 6 7 8 9 10 11 12 13 14 15 16 17 18 19 20 21 22 23 24 25 26 27 28 29 30 31 32 33 34 35 36 37 38 39 40 41 42 43 44 45 46 47 48 49 50

857
ASUS43 KMPX 260210
RWRMN
WEATHER ROUNDUP FOR MINNESOTA
NATIONAL WEATHER SERVICE TWIN CITIES/CHANHASSEN MN
900 PM CDT TUE APR 25 2017


NOTE: "FAIR" INDICATES FEW OR NO CLOUDS BELOW 12,000 FEET WITH NO
SIGNIFICANT WEATHER AND/OR OBSTRUCTIONS TO VISIBILITY. N/A MEANS
CURRENT SKY AND/OR WEATHER CONDITIONS ARE NOT AVAILABLE.

MNZ060>063-068>070-260300-
   Twin Cities Metro

CITY           SKY/WX    TMP DP  RH WIND       PRES   REMARKS
TWIN CITIES    LGT RAIN  54  51  90 NE8       29.57R FOG
ST PAUL        RAIN      54  53  97 NE8       29.58R FOG
CRYSTAL        LGT RAIN  53  50  89 N15       29.57S FOG
BLAINE         LGT RAIN  52  52 100 N14       29.58F
LAKEVILLE      LGT RAIN  52  52 100 NE5       29.56S
EDEN PRAIRIE   LGT RAIN  55  52  89 NE8       29.55S FOG
SOUTH ST PAUL  LGT RAIN  54  54  99 N8        29.57R
LAKE ELMO      LGT RAIN  54  54 100 N7        29.58F
$$
MNZ001>005-007-008-013>017-022>024-027-028-260300-
   Northwest Minnesota

CITY           SKY/WX    TMP DP  RH WIND       PRES   REMARKS
BEMIDJI        CLOUDY    31  27  87 NE13G18   29.80R WCI  21
HALLOCK        CLOUDY    36  27  69 NE14G22   29.93S
ROSEAU         CLOUDY    32  27  80 NE17G23   29.92F WCI  21
WARROAD        CLOUDY    30  27  86 NE21G32   29.93S WCI  17
THIEF RVR FALL CLOUDY    31  27  85 NE21G30   29.87R WCI  18
CROOKSTON      CLOUDY    34  28  80 NE17G24   29.88R WCI  23
FOSSTON        CLOUDY    30  28  93 N17G26    29.81R WCI  18
DETROIT LAKES  CLOUDY    36  32  87 NE13      29.75R
MOORHEAD       CLOUDY    34  28  80 N21G26    29.79R WCI  22
PARK RAPIDS    CLOUDY    35  28  75 NE16G26   29.74R WCI  25
MAHNOMEN       CLOUDY    33  29  88 NE24G31   29.77R WCI  20
$$
MNZ006-009>011-018-025>026-260300-
   North Central Minnesota

CITY           SKY/WX    TMP DP  RH WIND       PRES   REMARKS
BAUDETTE       CLOUDY    30  23  75 NE13G22   29.90R WCI  20
FLAG ISLAND    CLOUDY    30  25  80 NE17G28   29.96R WCI  18
INTL FALLS     CLOUDY    29  23  78 NE15G23   29.89R WCI  18
WASKISH        CLOUDY    30  27  86 NE9G22    29.86R WCI  22
BIG FORK       CLOUDY    30  27  86 NE13G20   29.81S WCI  20
LONGVILLE      MIX PCPN  34  30  86 NE7G16    29.76R WCI  28
GRAND RAPIDS   FLURRIES  31  29  92 N10G18    29.78R WCI  22
CRANE LAKE     CLOUDY    27  25  93 N9        29.88R WCI  17
ORR            CLOUDY    27  23  86 N3        29.81S
COOK           CLOUDY    28  25  86 N8G20     29.82S WCI  20
WALKER         CLOUDY    31  28  88 N13       29.77R WCI  22
$$
MNZ012-019>021-037-260300-
   Northeast Minnesota

CITY           SKY/WX    TMP DP  RH WIND       PRES   REMARKS
DULUTH         LGT RAIN  41  40  96 NE7       29.70S FOG
ELY            MIX PCPN  28  27  93 NE8       29.81R WCI  20
HIBBING        CLOUDY    30  28  92 N14G24    29.76S WCI  19
EVELETH        CLOUDY    32  28  85 NE10G21   29.78R WCI  24
DULUTH HARBOR  LGT RAIN  39  37  93 NE16      29.73R
TWO HARBORS    LGT RAIN  43  37  81 NE7       29.71R
SILVER BAY     LGT RAIN  37  37 100 CALM      29.74R
GRAND MARAIS     N/A     36  32  85 VRB5G28   29.76R
G MARAIS ARPRT LGT SNOW  28  25  86 N12       29.74R WCI  18
$$
MNZ029>031-032-039>041-046>048-054>057-064-260300-
   West Central Minnesota

CITY           SKY/WX    TMP DP  RH WIND       PRES   REMARKS
FERGUS FALLS   CLOUDY    37  32  81 NE13G22   29.72R
WHEATON        CLOUDY    37  32  81 NW17G23   29.74S
MORRIS         DRIZZLE   41  37  87 N16       29.67R
ALEXANDRIA     CLOUDY    40  35  83 NE15G23   29.68R
ELBOW LAKE     CLOUDY    39  35  85 NE14      29.70R
WADENA         CLOUDY    36  32  87 NE13G21   29.71R
GLENWOOD       DRIZZLE   41  37  87 N20G26    29.65S
APPLETON       LGT RAIN  41  37  87 N10       29.68R
BENSON         LGT RAIN  45  37  76 NE14      29.67R
ORTONVILLE     DRIZZLE   37  34  87 NW16G23   29.70R
MADISON        RAIN      43  41  93 NW17G24   29.68R
WILLMAR        LGT RAIN  45  43  93 N14       29.63S
$$
MNZ033>034-036-042>043-049>051-058-059-260300-
   Central Minnesota

CITY           SKY/WX    TMP DP  RH WIND       PRES   REMARKS
ST CLOUD       LGT RAIN  47  45  93 NE10      29.62R
SAUK CENTRE    RAIN      41  38  87 N10G18    29.66R
PAYNESVILLE    LGT RAIN  44  44 100 N12       29.62S
AITKIN         MIX PCPN  39  36  87 N9        29.69R
PINE RIVER     RAIN      34  30  86 N12G23    29.77R WCI  25
BRAINERD       LGT RAIN  39  36  89 N14       29.70R
STAPLES        DRIZZLE   36  32  87 NE13G23   29.70R
LONG PRAIRIE   MIX PCPN  39  36  87 NW13G18   29.67R
LITTLE FALLS   RAIN      41  37  87 N8        29.67R
LITCHFIELD     RAIN      48  46  93 VRB10     29.60R
BUFFALO        RAIN      50  47  92 NE15G23   29.59S
MAPLE LAKE     LGT RAIN  50  49  97 NE13G18   29.60R
HUTCHINSON     DRIZZLE   49  48  96 N13G18    29.58S
$$
MNZ037-044-045-052-053-260300-
   East Central Minnesota

CITY           SKY/WX    TMP DP  RH WIND       PRES   REMARKS
PRINCETON      RAIN      48  45  87 NE8       29.63R
MORA           RAIN      43  41  93 NE5       29.67R
CAMBRIDGE      RAIN      48  43  81 N9        29.60S
RUSH CITY      LGT RAIN  47  44  91 NE12G17   29.63S
MOOSE LAKE     LGT RAIN  43  41  93 NE8       29.67R
HINCKLEY       LGT RAIN  45  43  93 NE9G16    29.65R
CLOQUET        LGT RAIN  43  39  87 E9        29.70R
MCGREGOR       CLOUDY    37  36  93 N10       29.72R
$$
MNZ071>073-080-081-089-090-097-098-260300-
   Southwest Minnesota

CITY           SKY/WX    TMP DP  RH WIND       PRES   REMARKS
MONTEVIDEO     LGT RAIN  41  41 100 N8        29.65R
GRANITE FALLS  RAIN      43  41  93 NW13      29.65R
CANBY          LGT RAIN  38  37  93 NW14      29.69R
MARSHALL       LGT RAIN  38  37  97 NW18G25   29.64R
REDWOOD FALLS  LGT RAIN  46  43  89 NW12      29.59R
OLIVIA         LGT RAIN  45  43  93 N13       29.59S
PIPESTONE      LGT RAIN  37  34  87 N12G22    29.63S
WINDOM         RAIN      41  39  93 NW18G25   29.58S
WORTHINGTON    LGT RAIN  39  37  92 NW21      29.60S FOG
JACKSON        LGT SNOW  41  41 100 NW17      29.57S
TRACY          RAIN      39  39  98 NW20      29.62S
SLAYTON        RAIN      37  36  98 NW18      29.62S
$$
MNZ065>067-074>077-082>085-091>093-260300-
   South Central Minnesota

CITY           SKY/WX    TMP DP  RH WIND       PRES   REMARKS
MANKATO        LGT RAIN  49  48  97 NE9       29.55F FOG
NEW ULM        LGT RAIN  48  48 100 NW6       29.56R
ST JAMES       LGT RAIN  45  45 100 NW12      29.56F
FAIRMONT       LGT RAIN  45  44  97 NW14      29.55S FOG
GLENCOE        HVY RAIN  52  53 100 CALM      29.56R
FARIBAULT      DRIZZLE   52  50  93 N5        29.56F
OWATONNA       LGT RAIN  50  48  93 N8        29.54F
WASECA         CLOUDY    46  45  93 N12       29.55F
ALBERT LEA     CLOUDY    48  46  93 N10       29.51S FOG
$$
MNZ078>079-086>088-094>096-260300-
   Southeast Minnesota

CITY           SKY/WX    TMP DP  RH WIND       PRES   REMARKS
ROCHESTER      CLOUDY    54  52  93 NE12      29.51F
RED WING       DRIZZLE   55  54  94 E3        29.54R
STANTON        RAIN      53  51  93 N8        29.54F
DODGE CENTER   CLOUDY    52  52 100 N10       29.52F FOG
WINONA         CLOUDY    55  52  88 CALM      29.53F
AUSTIN         DRIZZLE   54  50  87 N7        29.50S
PRESTON        CLOUDY    55  51  86 NE10      29.50S
$$
ABBREVIATIONS USED IN REMARKS
   TC - TEMPERATURES IN CELSIUS
  WCI - WIND CHILL INDEX
   HX - HEAT INDEX
  VSB - VISIBILITY
$$




USA.gov is the U.S. government's official web portal to all federal, state and local government web resources and services.